| time (UTC) | temp F | wind direction | speed MPH | gust MPH | rain 1hr in | rain 24hr in | rain mn in | humidity % | barometer mb |
| 20260831042132 | 82 | 141 | 3.0 | 3.0 | 0.00 | 0.00 | 0.00 | 72 | 1014.5 |
| 20260831041632 | 82 | 123 | 2.0 | 2.0 | 0.00 | 0.00 | 0.00 | 72 | 1014.2 |
| 20260831041127 | 82 | 147 | 2.0 | 2.0 | 0.00 | 0.00 | 0.00 | 71 | 1014.2 |
| 20260831040622 | 82 | 160 | 2.0 | 2.0 | 0.00 | 0.00 | 0.00 | 71 | 1014.3 |
| 20260831040121 | 83 | 118 | 2.0 | 3.0 | 0.00 | 0.00 | 0.00 | 71 | 1014.1 |
| 20260831035619 | 83 | 123 | 2.0 | 2.0 | 0.00 | 0.00 | 0.00 | 70 | 1014.4 |
| 20260831035114 | 83 | 91 | 3.0 | 3.0 | 0.00 | 0.00 | 0.00 | 70 | 1014.1 |
| 20260831034614 | 83 | 82 | 2.0 | 2.0 | 0.00 | 0.00 | 0.00 | 70 | 1014.1 |
| 20260831034109 | 83 | 152 | 2.0 | 2.0 | 0.00 | 0.00 | 0.00 | 69 | 1014.2 |
| 20260831033604 | 84 | 127 | 3.0 | 3.0 | 0.00 | 0.00 | 0.00 | 69 | 1014.2 |
| 20260831033059 | 84 | 93 | 4.0 | 5.0 | 0.00 | 0.00 | 0.00 | 69 | 1013.9 |
| 20260831032559 | 84 | 60 | 1.0 | 2.0 | 0.00 | 0.00 | 0.00 | 68 | 1013.9 |
| 20260831032055 | 84 | 144 | 2.0 | 2.0 | 0.00 | 0.00 | 0.00 | 68 | 1014.0 |
| 20260831031554 | 84 | 87 | 3.0 | 3.0 | 0.00 | 0.00 | 0.00 | 68 | 1014.1 |
| 20260831031054 | 84 | 113 | 3.0 | 3.0 | 0.00 | 0.00 | 0.00 | 67 | 1013.9 |
| 20260831030553 | 85 | 194 | 4.0 | 5.0 | 0.00 | 0.00 | 0.00 | 67 | 1013.7 |
| 20260831030052 | 85 | 147 | 4.0 | 6.0 | 0.00 | 0.00 | 0.00 | 67 | 1013.8 |
| 20260831025550 | 85 | 166 | 4.0 | 6.0 | 0.00 | 0.00 | 0.00 | 67 | 1013.6 |
| 20260831025046 | 85 | 155 | 4.0 | 5.0 | 0.00 | 0.00 | 0.00 | 67 | 1013.7 |
| 20260831024542 | 85 | 100 | 2.0 | 2.0 | 0.00 | 0.00 | 0.00 | 67 | 1013.4 |
| 20260831024040 | 85 | 148 | 2.0 | 2.0 | 0.00 | 0.00 | 0.00 | 67 | 1013.3 |
| 20260831023539 | 86 | 159 | 3.0 | 5.0 | 0.00 | 0.00 | 0.00 | 66 | 1013.0 |
| 20260831023033 | 86 | 142 | 2.0 | 3.0 | 0.00 | 0.00 | 0.00 | 66 | 1013.2 |
| 20260831022533 | 86 | 81 | 2.0 | 3.0 | 0.00 | 0.00 | 0.00 | 66 | 1013.1 |
| 20260831022028 | 86 | 101 | 2.0 | 2.0 | 0.00 | 0.00 | 0.00 | 65 | 1013.0 |
| 20260831021527 | 86 | 151 | 4.0 | 5.0 | 0.00 | 0.00 | 0.00 | 65 | 1012.6 |
| 20260831021023 | 86 | 133 | 4.0 | 5.0 | 0.00 | 0.00 | 0.00 | 66 | 1012.5 |
| 20260831020519 | 86 | 101 | 3.0 | 3.0 | 0.00 | 0.00 | 0.00 | 65 | 1012.8 |
| 20260831020013 | 87 | 119 | 2.0 | 2.0 | 0.00 | 0.00 | 0.00 | 65 | 1012.4 |
| 20260831015509 | 87 | 97 | 2.0 | 3.0 | 0.00 | 0.00 | 0.00 | 65 | 1012.4 |
| 20260831015004 | 87 | 151 | 3.0 | 3.0 | 0.00 | 0.00 | 0.00 | 65 | 1012.3 |
| 20260831014458 | 87 | 134 | 3.0 | 3.0 | 0.00 | 0.00 | 0.00 | 64 | 1012.3 |
| 20260831013953 | 87 | 112 | 4.0 | 6.0 | 0.00 | 0.00 | 0.00 | 64 | 1012.3 |
| 20260831013450 | 87 | 114 | 2.0 | 2.0 | 0.00 | 0.00 | 0.00 | 63 | 1012.3 |
| 20260831012943 | 87 | 164 | 3.0 | 5.0 | 0.00 | 0.00 | 0.00 | 63 | 1012.1 |
| 20260831012438 | 88 | 157 | 3.0 | 3.0 | 0.00 | 0.00 | 0.00 | 62 | 1012.2 |
| 20260831011933 | 88 | 138 | 4.0 | 6.0 | 0.00 | 0.00 | 0.00 | 62 | 1012.4 |
| 20260831011427 | 89 | 137 | 3.0 | 3.0 | 0.00 | 0.00 | 0.00 | 61 | 1012.2 |
| 20260831010923 | 89 | 137 | 3.0 | 3.0 | 0.00 | 0.00 | 0.00 | 60 | 1012.1 |
| 20260831010418 | 90 | 82 | 7.0 | 10.0 | 0.00 | 0.00 | 0.00 | 58 | 1012.0 |
| 20260831005913 | 90 | 112 | 2.0 | 3.0 | 0.00 | 0.00 | 0.00 | 54 | 1012.2 |
| 20260831005409 | 91 | 98 | 2.0 | 2.0 | 0.00 | 0.00 | 0.00 | 53 | 1011.9 |
| 20260831004903 | 91 | 125 | 1.0 | 2.0 | 0.00 | 0.00 | 0.00 | 53 | 1011.8 |
| 20260831004400 | 91 | 134 | 3.0 | 3.0 | 0.00 | 0.00 | 0.00 | 53 | 1011.8 |
| 20260831003855 | 91 | 71 | 1.0 | 1.0 | 0.00 | 0.00 | 0.00 | 53 | 1011.7 |
| 20260831003351 | 92 | 104 | 1.0 | 1.0 | 0.00 | 0.00 | 0.00 | 52 | 1011.8 |
| 20260831002850 | 92 | 111 | 1.0 | 1.0 | 0.00 | 0.00 | 0.00 | 51 | 1011.9 |
| 20260831002350 | 92 | 104 | 1.0 | 1.0 | 0.00 | 0.00 | 0.00 | 52 | 1011.7 |
| 20260831001846 | 92 | 114 | 3.0 | 3.0 | 0.00 | 0.00 | 0.00 | 51 | 1011.6 |
| 20260831001345 | 93 | 105 | 2.0 | 2.0 | 0.00 | 0.00 | 0.00 | 51 | 1011.7 |
| 20260831000843 | 93 | 68 | 1.0 | 1.0 | 0.00 | 0.00 | 0.00 | 50 | 1011.5 |
| 20260831000340 | 94 | 138 | 2.0 | 2.0 | 0.00 | 0.00 | 0.00 | 49 | 1011.6 |
| 20260830235836 | 94 | 144 | 3.0 | 5.0 | 0.00 | 0.00 | 0.00 | 49 | 1011.6 |
| 20260830235331 | 95 | 109 | 1.0 | 2.0 | 0.00 | 0.00 | 0.00 | 48 | 1011.6 |
| 20260830234827 | 94 | 80 | 1.0 | 1.0 | 0.00 | 0.00 | 0.00 | 48 | 1011.6 |
| 20260830234322 | 95 | 119 | 2.0 | 2.0 | 0.00 | 0.00 | 0.00 | 47 | 1011.5 |
| 20260830233818 | 94 | 137 | 0.0 | 1.0 | 0.00 | 0.00 | 0.00 | 48 | 1011.6 |
| 20260830233313 | 92 | 207 | 2.0 | 3.0 | 0.00 | 0.00 | 0.00 | 49 | 1011.6 |
| 20260830232809 | 92 | 65 | 2.0 | 3.0 | 0.00 | 0.00 | 0.00 | 50 | 1011.7 |
| 20260830232306 | 93 | 50 | 2.0 | 2.0 | 0.00 | 0.00 | 0.00 | 50 | 1011.7 |
| 20260830231801 | 93 | 178 | 2.0 | 3.0 | 0.00 | 0.00 | 0.00 | 50 | 1011.7 |
| 20260830231301 | 92 | 114 | 3.0 | 3.0 | 0.00 | 0.00 | 0.00 | 50 | 1011.6 |
| 20260830230755 | 93 | 104 | 2.0 | 2.0 | 0.00 | 0.00 | 0.00 | 50 | 1011.8 |
| 20260830230251 | 95 | 109 | 2.0 | 2.0 | 0.00 | 0.00 | 0.00 | 49 | 1011.7 |
| 20260830225750 | 95 | 15 | 2.0 | 3.0 | 0.00 | 0.00 | 0.00 | 47 | 1011.9 |
| 20260830225245 | 96 | 98 | 1.0 | 1.0 | 0.00 | 0.00 | 0.00 | 46 | 1011.9 |
| 20260830224744 | 96 | 159 | 3.0 | 3.0 | 0.00 | 0.00 | 0.00 | 47 | 1012.1 |
| 20260830224240 | 96 | 100 | 3.0 | 5.0 | 0.00 | 0.00 | 0.00 | 45 | 1011.6 |
| 20260830223736 | 96 | 159 | 2.0 | 3.0 | 0.00 | 0.00 | 0.00 | 46 | 1011.8 |
| 20260830223232 | 96 | 140 | 3.0 | 3.0 | 0.00 | 0.00 | 0.00 | 47 | 1011.8 |
| 20260830222726 | 97 | 139 | 3.0 | 3.0 | 0.00 | 0.00 | 0.00 | 46 | 1011.8 |
| 20260830222221 | 95 | 162 | 1.0 | 1.0 | 0.00 | 0.00 | 0.00 | 47 | 1011.9 |
| 20260830221717 | 96 | 326 | 2.0 | 3.0 | 0.00 | 0.00 | 0.00 | 45 | 1012.0 |
| 20260830221214 | 97 | 130 | 3.0 | 3.0 | 0.00 | 0.00 | 0.00 | 45 | 1011.9 |
| 20260830220709 | 97 | 156 | 3.0 | 3.0 | 0.00 | 0.00 | 0.00 | 46 | 1012.1 |
| 20260830220208 | 97 | 144 | 3.0 | 3.0 | 0.00 | 0.00 | 0.00 | 46 | 1012.1 |
| 20260830215707 | 97 | 155 | 3.0 | 3.0 | 0.00 | 0.00 | 0.00 | 46 | 1012.0 |
| 20260830215201 | 96 | 109 | 1.0 | 2.0 | 0.00 | 0.00 | 0.00 | 47 | 1012.1 |
| 20260830214657 | 96 | 108 | 2.0 | 2.0 | 0.00 | 0.00 | 0.00 | 47 | 1012.0 |
| 20260830214156 | 97 | 148 | 4.0 | 5.0 | 0.00 | 0.00 | 0.00 | 46 | 1011.9 |
| 20260830213656 | 97 | 143 | 3.0 | 3.0 | 0.00 | 0.00 | 0.00 | 46 | 1012.2 |
| 20260830213151 | 96 | 85 | 3.0 | 6.0 | 0.00 | 0.00 | 0.00 | 47 | 1012.3 |
| 20260830212647 | 97 | 133 | 2.0 | 2.0 | 0.00 | 0.00 | 0.00 | 46 | 1012.3 |
| 20260830212142 | 97 | 108 | 5.0 | 8.0 | 0.00 | 0.00 | 0.00 | 46 | 1012.4 |
| 20260830211637 | 95 | 110 | 2.0 | 3.0 | 0.00 | 0.00 | 0.00 | 47 | 1012.6 |
| 20260830211136 | 96 | 144 | 4.0 | 7.0 | 0.00 | 0.00 | 0.00 | 48 | 1012.6 |
| 20260830210632 | 97 | 170 | 3.0 | 3.0 | 0.00 | 0.00 | 0.00 | 47 | 1012.9 |
| 20260830210131 | 96 | 158 | 2.0 | 3.0 | 0.00 | 0.00 | 0.00 | 49 | 1012.8 |
| 20260830205628 | 96 | 68 | 3.0 | 3.0 | 0.00 | 0.00 | 0.00 | 48 | 1012.9 |
| 20260830205124 | 96 | 127 | 4.0 | 6.0 | 0.00 | 0.00 | 0.00 | 48 | 1013.0 |
| 20260830204624 | 95 | 142 | 3.0 | 3.0 | 0.00 | 0.00 | 0.00 | 48 | 1013.0 |
| 20260830204123 | 94 | 76 | 2.0 | 3.0 | 0.00 | 0.00 | 0.00 | 49 | 1013.3 |
| 20260830203619 | 93 | 157 | 3.0 | 5.0 | 0.00 | 0.00 | 0.00 | 52 | 1013.5 |
| 20260830203119 | 95 | 92 | 2.0 | 2.0 | 0.00 | 0.00 | 0.00 | 51 | 1013.6 |
| 20260830202619 | 93 | 129 | 2.0 | 2.0 | 0.00 | 0.00 | 0.00 | 52 | 1013.3 |
| 20260830202114 | 95 | 108 | 2.0 | 2.0 | 0.00 | 0.00 | 0.00 | 51 | 1013.5 |
| 20260830201614 | 93 | 159 | 3.0 | 3.0 | 0.00 | 0.00 | 0.00 | 53 | 1013.4 |
| 20260830201109 | 93 | 141 | 3.0 | 5.0 | 0.00 | 0.00 | 0.00 | 52 | 1013.7 |
| 20260830200604 | 95 | 149 | 4.0 | 6.0 | 0.00 | 0.00 | 0.00 | 51 | 1013.6 |
| 20260830200103 | 96 | 151 | 3.0 | 3.0 | 0.00 | 0.00 | 0.00 | 49 | 1013.6 |
| 20260830195559 | 94 | 131 | 3.0 | 3.0 | 0.00 | 0.00 | 0.00 | 52 | 1013.8 |
| 20260830195056 | 95 | 108 | 4.0 | 6.0 | 0.00 | 0.00 | 0.00 | 51 | 1014.0 |
| 20260830194551 | 95 | 124 | 4.0 | 5.0 | 0.00 | 0.00 | 0.00 | 51 | 1014.1 |
| 20260830194045 | 96 | 174 | 3.0 | 5.0 | 0.00 | 0.00 | 0.00 | 52 | 1014.2 |
| 20260830193544 | 95 | 163 | 5.0 | 6.0 | 0.00 | 0.00 | 0.00 | 53 | 1014.3 |
| 20260830193040 | 95 | 179 | 5.0 | 7.0 | 0.00 | 0.00 | 0.00 | 52 | 1014.4 |
| 20260830192535 | 94 | 153 | 5.0 | 6.0 | 0.00 | 0.00 | 0.00 | 54 | 1014.1 |
| 20260830192029 | 91 | 145 | 4.0 | 5.0 | 0.00 | 0.00 | 0.00 | 56 | 1014.5 |
| 20260830191525 | 91 | 145 | 2.0 | 2.0 | 0.00 | 0.00 | 0.00 | 57 | 1014.7 |
| 20260830191020 | 92 | 105 | 3.0 | 3.0 | 0.00 | 0.00 | 0.00 | 57 | 1014.6 |
| 20260830190515 | 95 | 273 | 5.0 | 7.0 | 0.00 | 0.00 | 0.00 | 55 | 1015.0 |
| 20260830190010 | 94 | 73 | 1.0 | 2.0 | 0.00 | 0.00 | 0.00 | 54 | 1014.6 |
| 20260830185504 | 93 | 167 | 2.0 | 2.0 | 0.00 | 0.00 | 0.00 | 56 | 1014.8 |
| 20260830184959 | 92 | 136 | 5.0 | 6.0 | 0.00 | 0.00 | 0.00 | 55 | 1014.8 |
| 20260830184459 | 93 | 144 | 4.0 | 6.0 | 0.00 | 0.00 | 0.00 | 56 | 1015.1 |
| 20260830183953 | 93 | 89 | 2.0 | 2.0 | 0.00 | 0.00 | 0.00 | 54 | 1015.1 |
| 20260830183448 | 93 | 88 | 2.0 | 2.0 | 0.00 | 0.00 | 0.00 | 58 | 1015.2 |
| 20260830182943 | 93 | 76 | 0.0 | 1.0 | 0.00 | 0.00 | 0.00 | 57 | 1015.3 |
| 20260830182439 | 92 | 265 | 3.0 | 3.0 | 0.00 | 0.00 | 0.00 | 59 | 1015.4 |
| 20260830181935 | 91 | 93 | 1.0 | 2.0 | 0.00 | 0.00 | 0.00 | 59 | 1015.5 |
| 20260830181430 | 90 | 119 | 1.0 | 2.0 | 0.00 | 0.00 | 0.00 | 61 | 1015.4 |
| 20260830180925 | 91 | 229 | 2.0 | 3.0 | 0.00 | 0.00 | 0.00 | 60 | 1015.7 |
| 20260830180424 | 93 | 158 | 6.0 | 8.0 | 0.00 | 0.00 | 0.00 | 57 | 1015.5 |
| 20260830175923 | 93 | 118 | 5.0 | 6.0 | 0.00 | 0.00 | 0.00 | 57 | 1015.7 |
| 20260830175423 | 93 | 116 | 2.0 | 2.0 | 0.00 | 0.00 | 0.00 | 57 | 1015.7 |
| 20260830174918 | 91 | 118 | 2.0 | 2.0 | 0.00 | 0.00 | 0.00 | 59 | 1016.1 |
| 20260830174414 | 91 | 112 | 1.0 | 2.0 | 0.00 | 0.00 | 0.00 | 60 | 1015.9 |
| 20260830173909 | 90 | 80 | 1.0 | 2.0 | 0.00 | 0.00 | 0.00 | 62 | 1016.1 |
| 20260830173405 | 91 | 301 | 3.0 | 5.0 | 0.00 | 0.00 | 0.00 | 59 | 1016.1 |
| 20260830172900 | 91 | 161 | 4.0 | 5.0 | 0.00 | 0.00 | 0.00 | 60 | 1016.2 |
| 20260830172356 | 90 | 141 | 2.0 | 2.0 | 0.00 | 0.00 | 0.00 | 61 | 1016.0 |
| 20260830171852 | 91 | 139 | 3.0 | 3.0 | 0.00 | 0.00 | 0.00 | 61 | 1016.0 |
| 20260830171348 | 91 | 153 | 7.0 | 10.0 | 0.00 | 0.00 | 0.00 | 59 | 1016.4 |
| 20260830170843 | 89 | 141 | 1.0 | 2.0 | 0.00 | 0.00 | 0.00 | 62 | 1016.2 |
| 20260830170342 | 90 | 222 | 4.0 | 5.0 | 0.00 | 0.00 | 0.00 | 63 | 1016.1 |
| 20260830165840 | 91 | 96 | 2.0 | 2.0 | 0.00 | 0.00 | 0.00 | 60 | 1016.3 |
| 20260830165337 | 89 | 155 | 3.0 | 3.0 | 0.00 | 0.00 | 0.00 | 64 | 1016.4 |
| 20260830164833 | 89 | 195 | 2.0 | 3.0 | 0.00 | 0.00 | 0.00 | 64 | 1016.4 |
| 20260830164328 | 89 | 173 | 2.0 | 2.0 | 0.00 | 0.00 | 0.00 | 64 | 1016.4 |
| 20260830163825 | 89 | 137 | 5.0 | 7.0 | 0.00 | 0.00 | 0.00 | 63 | 1016.4 |
| 20260830163320 | 89 | 134 | 2.0 | 3.0 | 0.00 | 0.00 | 0.00 | 63 | 1016.5 |
| 20260830162815 | 88 | 153 | 3.0 | 3.0 | 0.00 | 0.00 | 0.00 | 66 | 1016.5 |
| 20260830162311 | 89 | 179 | 3.0 | 5.0 | 0.00 | 0.00 | 0.00 | 65 | 1016.6 |
| 20260830161806 | 89 | 194 | 3.0 | 3.0 | 0.00 | 0.00 | 0.00 | 65 | 1016.2 |
| 20260830161305 | 88 | 112 | 2.0 | 2.0 | 0.00 | 0.00 | 0.00 | 69 | 1016.2 |
| 20260830160801 | 87 | 130 | 5.0 | 6.0 | 0.00 | 0.00 | 0.00 | 70 | 1016.3 |
| 20260830160300 | 87 | 133 | 2.0 | 3.0 | 0.00 | 0.00 | 0.00 | 70 | 1016.4 |
| 20260830155751 | 86 | 150 | 2.0 | 5.0 | 0.00 | 0.00 | 0.00 | 71 | 1016.3 |
| 20260830155248 | 86 | 131 | 4.0 | 5.0 | 0.00 | 0.00 | 0.00 | 71 | 1016.7 |
| 20260830154747 | 86 | 140 | 2.0 | 2.0 | 0.00 | 0.00 | 0.00 | 72 | 1016.4 |
| 20260830154243 | 86 | 124 | 5.0 | 6.0 | 0.00 | 0.00 | 0.00 | 72 | 1016.4 |
| 20260830153740 | 85 | 200 | 2.0 | 3.0 | 0.00 | 0.00 | 0.00 | 72 | 1016.2 |
| 20260830153235 | 85 | 74 | 2.0 | 2.0 | 0.00 | 0.00 | 0.00 | 72 | 1016.3 |
| 20260830152733 | 84 | 153 | 3.0 | 3.0 | 0.00 | 0.00 | 0.00 | 74 | 1016.4 |
| 20260830152228 | 84 | 159 | 4.0 | 6.0 | 0.00 | 0.00 | 0.00 | 74 | 1016.4 |
| 20260830151722 | 84 | 18 | 2.0 | 3.0 | 0.00 | 0.00 | 0.00 | 76 | 1016.4 |
| 20260830151222 | 83 | 276 | 2.0 | 3.0 | 0.00 | 0.00 | 0.00 | 77 | 1016.3 |
| 20260830150717 | 83 | 187 | 4.0 | 5.0 | 0.00 | 0.00 | 0.00 | 78 | 1016.4 |
| 20260830150211 | 82 | 254 | 3.0 | 6.0 | 0.00 | 0.00 | 0.00 | 79 | 1016.5 |
| 20260830145706 | 83 | 181 | 5.0 | 6.0 | 0.00 | 0.00 | 0.00 | 79 | 1016.5 |
| 20260830145201 | 82 | 146 | 2.0 | 2.0 | 0.00 | 0.00 | 0.00 | 80 | 1016.2 |
| 20260830144656 | 82 | 281 | 3.0 | 5.0 | 0.00 | 0.00 | 0.00 | 80 | 1016.4 |
| 20260830144152 | 82 | 107 | 2.0 | 2.0 | 0.00 | 0.00 | 0.00 | 82 | 1016.3 |
| 20260830143648 | 81 | 199 | 3.0 | 3.0 | 0.00 | 0.00 | 0.00 | 85 | 1016.6 |
| 20260830143146 | 80 | 178 | 3.0 | 5.0 | 0.00 | 0.00 | 0.00 | 85 | 1016.5 |
| 20260830142641 | 80 | 212 | 2.0 | 3.0 | 0.00 | 0.00 | 0.00 | 87 | 1016.5 |
| 20260830142136 | 79 | 134 | 5.0 | 7.0 | 0.00 | 0.00 | 0.00 | 89 | 1016.2 |
| 20260830141631 | 78 | 46 | 1.0 | 2.0 | 0.00 | 0.00 | 0.00 | 92 | 1016.3 |
| 20260830141126 | 77 | 51 | 1.0 | 1.0 | 0.00 | 0.00 | 0.00 | 93 | 1016.2 |
| 20260830140621 | 77 | 279 | 5.0 | 6.0 | 0.00 | 0.00 | 0.00 | 93 | 1016.2 |
| 20260830140121 | 78 | 130 | 4.0 | 5.0 | 0.00 | 0.00 | 0.00 | 94 | 1016.1 |
| 20260830135615 | 77 | 76 | 2.0 | 2.0 | 0.00 | 0.00 | 0.00 | 95 | 1016.0 |
| 20260830135111 | 77 | 164 | 2.0 | 2.0 | 0.00 | 0.00 | 0.00 | 95 | 1016.2 |
| 20260830134607 | 76 | 57 | 1.0 | 1.0 | 0.00 | 0.00 | 0.00 | 96 | 1016.3 |
| 20260830134102 | 76 | 156 | 2.0 | 3.0 | 0.00 | 0.00 | 0.00 | 96 | 1016.2 |
| 20260830133557 | 76 | 212 | 2.0 | 2.0 | 0.00 | 0.00 | 0.00 | 96 | 1016.1 |
| 20260830133052 | 76 | 125 | 2.0 | 2.0 | 0.00 | 0.00 | 0.00 | 97 | 1016.0 |
| 20260830132549 | 75 | 70 | 1.0 | 1.0 | 0.00 | 0.00 | 0.00 | 97 | 1016.2 |
| 20260830132043 | 75 | 92 | 2.0 | 3.0 | 0.00 | 0.00 | 0.00 | 97 | 1015.9 |
| 20260830131542 | 75 | 78 | 2.0 | 2.0 | 0.00 | 0.00 | 0.00 | 97 | 1016.0 |
| 20260830131037 | 75 | 85 | 1.0 | 1.0 | 0.00 | 0.00 | 0.00 | 97 | 1016.0 |
| 20260830130532 | 75 | 180 | 2.0 | 3.0 | 0.00 | 0.00 | 0.00 | 97 | 1015.9 |
| 20260830130028 | 74 | 153 | 3.0 | 3.0 | 0.00 | 0.00 | 0.00 | 97 | 1015.8 |
| 20260830125522 | 74 | 86 | 1.0 | 1.0 | 0.00 | 0.00 | 0.00 | 97 | 1015.8 |
| 20260830125021 | 74 | 63 | 1.0 | 2.0 | 0.00 | 0.00 | 0.00 | 97 | 1015.7 |
| 20260830124520 | 74 | 99 | 1.0 | 1.0 | 0.00 | 0.00 | 0.00 | 97 | 1015.8 |
| 20260830124016 | 74 | 74 | 0.0 | 1.0 | 0.00 | 0.00 | 0.00 | 97 | 1015.5 |
| 20260830123513 | 74 | 64 | 0.0 | 0.0 | 0.00 | 0.00 | 0.00 | 97 | 1015.3 |
| 20260830123008 | 74 | 58 | 0.0 | 1.0 | 0.00 | 0.00 | 0.00 | 97 | 1015.4 |
| 20260830122504 | 74 | 43 | 0.0 | 1.0 | 0.00 | 0.00 | 0.00 | 97 | 1015.3 |
| 20260830122000 | 74 | 62 | 0.0 | 0.0 | 0.00 | 0.00 | 0.00 | 97 | 1015.5 |
| 20260830121455 | 74 | 75 | 0.0 | 1.0 | 0.00 | 0.00 | 0.00 | 97 | 1015.4 |
| 20260830120949 | 74 | 107 | 1.0 | 1.0 | 0.00 | 0.00 | 0.00 | 97 | 1015.3 |
| 20260830120444 | 74 | 252 | 3.0 | 3.0 | 0.00 | 0.00 | 0.00 | 97 | 1015.1 |
| 20260830115941 | 74 | 71 | 1.0 | 1.0 | 0.00 | 0.00 | 0.00 | 97 | 1015.3 |
| 20260830115437 | 74 | 121 | 1.0 | 1.0 | 0.00 | 0.00 | 0.00 | 97 | 1015.1 |
| 20260830114932 | 74 | 103 | 1.0 | 2.0 | 0.00 | 0.00 | 0.00 | 97 | 1015.4 |
| 20260830114429 | 74 | 61 | 0.0 | 1.0 | 0.00 | 0.00 | 0.00 | 97 | 1015.2 |
| 20260830113929 | 74 | 255 | 1.0 | 2.0 | 0.00 | 0.00 | 0.00 | 97 | 1015.3 |
| 20260830113424 | 74 | 115 | 2.0 | 2.0 | 0.00 | 0.00 | 0.00 | 97 | 1015.1 |
| 20260830112919 | 74 | 270 | 1.0 | 1.0 | 0.00 | 0.00 | 0.00 | 96 | 1015.1 |
| 20260830112416 | 74 | 131 | 3.0 | 3.0 | 0.00 | 0.00 | 0.00 | 96 | 1015.0 |
| 20260830111911 | 74 | 122 | 1.0 | 1.0 | 0.00 | 0.00 | 0.00 | 96 | 1015.4 |
| 20260830111407 | 74 | 244 | 1.0 | 2.0 | 0.00 | 0.00 | 0.00 | 96 | 1015.1 |
| 20260830110901 | 74 | 122 | 2.0 | 2.0 | 0.00 | 0.00 | 0.00 | 96 | 1015.0 |
| 20260830110358 | 74 | 62 | 1.0 | 1.0 | 0.00 | 0.00 | 0.00 | 96 | 1015.1 |
| 20260830105856 | 74 | 129 | 1.0 | 2.0 | 0.00 | 0.00 | 0.00 | 96 | 1015.2 |
| 20260830105353 | 74 | 81 | 3.0 | 3.0 | 0.00 | 0.00 | 0.00 | 96 | 1015.1 |
| 20260830104849 | 74 | 159 | 2.0 | 2.0 | 0.00 | 0.00 | 0.00 | 96 | 1015.0 |
| 20260830104346 | 74 | 90 | 2.0 | 2.0 | 0.00 | 0.00 | 0.00 | 96 | 1014.8 |
| 20260830103844 | 74 | 140 | 2.0 | 2.0 | 0.00 | 0.00 | 0.00 | 96 | 1015.2 |
| 20260830103341 | 74 | 101 | 2.0 | 2.0 | 0.00 | 0.00 | 0.00 | 96 | 1015.1 |
| 20260830102838 | 74 | 80 | 2.0 | 2.0 | 0.00 | 0.00 | 0.00 | 95 | 1015.1 |
| 20260830102334 | 75 | 214 | 3.0 | 3.0 | 0.00 | 0.00 | 0.00 | 95 | 1015.1 |
| 20260830101830 | 75 | 98 | 3.0 | 5.0 | 0.00 | 0.00 | 0.00 | 95 | 1015.2 |
| 20260830101326 | 75 | 89 | 2.0 | 2.0 | 0.00 | 0.00 | 0.00 | 95 | 1015.0 |
| 20260830100825 | 74 | 106 | 1.0 | 2.0 | 0.00 | 0.00 | 0.00 | 95 | 1014.9 |
| 20260830100319 | 74 | 87 | 1.0 | 1.0 | 0.00 | 0.00 | 0.00 | 95 | 1014.8 |
| 20260830095818 | 74 | 100 | 2.0 | 2.0 | 0.00 | 0.00 | 0.00 | 95 | 1015.1 |
| 20260830095314 | 75 | 86 | 2.0 | 2.0 | 0.00 | 0.00 | 0.00 | 95 | 1014.9 |
| 20260830094810 | 75 | 67 | 1.0 | 1.0 | 0.00 | 0.00 | 0.00 | 94 | 1015.1 |
| 20260830094306 | 75 | 182 | 2.0 | 2.0 | 0.00 | 0.00 | 0.00 | 94 | 1015.1 |
| 20260830093801 | 75 | 204 | 3.0 | 5.0 | 0.00 | 0.00 | 0.00 | 94 | 1015.0 |
| 20260830093257 | 75 | 167 | 1.0 | 2.0 | 0.00 | 0.00 | 0.00 | 94 | 1015.0 |
| 20260830092756 | 75 | 209 | 2.0 | 3.0 | 0.00 | 0.00 | 0.00 | 94 | 1014.8 |
| 20260830092253 | 75 | 164 | 4.0 | 6.0 | 0.00 | 0.00 | 0.00 | 93 | 1015.0 |
| 20260830091749 | 75 | 123 | 1.0 | 2.0 | 0.00 | 0.00 | 0.00 | 93 | 1014.9 |
| 20260830091249 | 75 | 93 | 3.0 | 3.0 | 0.00 | 0.00 | 0.00 | 93 | 1015.1 |
| 20260830090748 | 75 | 137 | 2.0 | 3.0 | 0.00 | 0.00 | 0.00 | 93 | 1015.0 |
| 20260830090244 | 75 | 77 | 1.0 | 1.0 | 0.00 | 0.00 | 0.00 | 93 | 1015.2 |
| 20260830085743 | 75 | 82 | 1.0 | 2.0 | 0.00 | 0.00 | 0.00 | 92 | 1015.0 |
| 20260830085239 | 75 | 105 | 2.0 | 2.0 | 0.00 | 0.00 | 0.00 | 92 | 1015.0 |
| 20260830084734 | 75 | 67 | 1.0 | 1.0 | 0.00 | 0.00 | 0.00 | 92 | 1015.1 |
| 20260830084229 | 75 | 49 | 1.0 | 2.0 | 0.00 | 0.00 | 0.00 | 92 | 1015.2 |
| 20260830083724 | 75 | 101 | 1.0 | 1.0 | 0.00 | 0.00 | 0.00 | 91 | 1015.3 |
| 20260830083220 | 75 | 78 | 1.0 | 1.0 | 0.00 | 0.00 | 0.00 | 91 | 1015.1 |
| 20260830082719 | 75 | 80 | 1.0 | 1.0 | 0.00 | 0.00 | 0.00 | 91 | 1014.9 |
| 20260830082215 | 75 | 80 | 1.0 | 2.0 | 0.00 | 0.00 | 0.00 | 91 | 1015.2 |
| 20260830081711 | 75 | 63 | 2.0 | 2.0 | 0.00 | 0.00 | 0.00 | 90 | 1015.2 |
| 20260830081210 | 75 | 96 | 1.0 | 1.0 | 0.00 | 0.00 | 0.00 | 90 | 1015.2 |
| 20260830080704 | 75 | 139 | 2.0 | 2.0 | 0.00 | 0.00 | 0.00 | 90 | 1015.1 |
| 20260830080201 | 75 | 106 | 1.0 | 2.0 | 0.00 | 0.00 | 0.00 | 90 | 1015.0 |
| 20260830075659 | 75 | 144 | 2.0 | 2.0 | 0.00 | 0.00 | 0.00 | 89 | 1015.5 |
| 20260830075155 | 75 | 119 | 3.0 | 3.0 | 0.00 | 0.00 | 0.00 | 89 | 1015.2 |
| 20260830074651 | 75 | 143 | 2.0 | 3.0 | 0.00 | 0.00 | 0.00 | 89 | 1015.2 |
| 20260830074146 | 76 | 71 | 2.0 | 3.0 | 0.00 | 0.00 | 0.00 | 89 | 1015.2 |
| 20260830073642 | 76 | 73 | 1.0 | 1.0 | 0.00 | 0.00 | 0.00 | 88 | 1015.4 |
| 20260830073138 | 76 | 141 | 2.0 | 2.0 | 0.00 | 0.00 | 0.00 | 88 | 1015.4 |
| 20260830072633 | 76 | 117 | 2.0 | 2.0 | 0.00 | 0.00 | 0.00 | 88 | 1015.5 |
| 20260830072132 | 76 | 214 | 2.0 | 3.0 | 0.00 | 0.00 | 0.00 | 87 | 1015.3 |
| 20260830071628 | 76 | 43 | 1.0 | 2.0 | 0.00 | 0.00 | 0.00 | 87 | 1015.7 |
| 20260830071126 | 76 | 136 | 3.0 | 5.0 | 0.00 | 0.00 | 0.00 | 87 | 1015.4 |
| 20260830070621 | 77 | 80 | 2.0 | 2.0 | 0.00 | 0.00 | 0.00 | 86 | 1015.7 |
| 20260830070116 | 77 | 186 | 2.0 | 3.0 | 0.00 | 0.00 | 0.00 | 86 | 1015.4 |
| 20260830065615 | 77 | 115 | 1.0 | 2.0 | 0.00 | 0.00 | 0.00 | 86 | 1015.7 |
| 20260830065114 | 77 | 85 | 2.0 | 2.0 | 0.00 | 0.00 | 0.00 | 85 | 1015.3 |
| 20260830064608 | 77 | 58 | 1.0 | 1.0 | 0.00 | 0.00 | 0.00 | 85 | 1015.7 |
| 20260830064103 | 77 | 152 | 1.0 | 2.0 | 0.00 | 0.00 | 0.00 | 85 | 1015.7 |
| 20260830063557 | 77 | 126 | 1.0 | 1.0 | 0.00 | 0.00 | 0.00 | 84 | 1015.7 |
| 20260830063057 | 77 | 160 | 2.0 | 3.0 | 0.00 | 0.00 | 0.00 | 84 | 1015.7 |
| 20260830062557 | 77 | 119 | 2.0 | 2.0 | 0.00 | 0.00 | 0.00 | 84 | 1015.7 |
| 20260830062051 | 78 | 130 | 2.0 | 2.0 | 0.00 | 0.00 | 0.00 | 83 | 1015.5 |
| 20260830061546 | 78 | 162 | 3.0 | 3.0 | 0.00 | 0.00 | 0.00 | 83 | 1015.4 |
| 20260830061043 | 78 | 171 | 2.0 | 2.0 | 0.00 | 0.00 | 0.00 | 83 | 1015.4 |
| 20260830060538 | 78 | 138 | 2.0 | 2.0 | 0.00 | 0.00 | 0.00 | 82 | 1015.4 |
| 20260830060035 | 78 | 77 | 1.0 | 2.0 | 0.00 | 0.00 | 0.00 | 82 | 1015.3 |
| 20260830055530 | 78 | 152 | 2.0 | 3.0 | 0.00 | 0.00 | 0.00 | 81 | 1015.4 |
| 20260830055026 | 78 | 94 | 2.0 | 2.0 | 0.00 | 0.00 | 0.00 | 81 | 1015.3 |
| 20260830054521 | 78 | 132 | 3.0 | 3.0 | 0.00 | 0.00 | 0.00 | 81 | 1015.1 |
| 20260830054016 | 78 | 111 | 3.0 | 5.0 | 0.00 | 0.00 | 0.00 | 80 | 1015.3 |
| 20260830053512 | 79 | 93 | 2.0 | 2.0 | 0.00 | 0.00 | 0.00 | 80 | 1015.4 |
| 20260830053011 | 79 | 95 | 2.0 | 2.0 | 0.00 | 0.00 | 0.00 | 79 | 1015.4 |
| 20260830052507 | 79 | 167 | 3.0 | 6.0 | 0.00 | 0.00 | 0.00 | 79 | 1015.3 |
| 20260830052006 | 79 | 34 | 1.0 | 2.0 | 0.00 | 0.00 | 0.00 | 79 | 1015.5 |
| 20260830051502 | 80 | 112 | 3.0 | 3.0 | 0.00 | 0.00 | 0.00 | 78 | 1015.3 |
| 20260830050956 | 80 | 135 | 3.0 | 3.0 | 0.00 | 0.00 | 0.00 | 77 | 1015.3 |
| 20260830050451 | 80 | 98 | 2.0 | 2.0 | 0.00 | 0.00 | 0.00 | 77 | 1015.4 |
| 20260830045950 | 80 | 118 | 2.0 | 2.0 | 0.00 | 0.01 | 0.01 | 77 | 1015.1 |
| 20260830045445 | 80 | 150 | 4.0 | 5.0 | 0.00 | 0.01 | 0.01 | 76 | 1015.4 |
| 20260830044944 | 81 | 144 | 4.0 | 6.0 | 0.00 | 0.01 | 0.01 | 76 | 1015.4 |
| 20260830044440 | 81 | 142 | 3.0 | 3.0 | 0.00 | 0.01 | 0.01 | 75 | 1015.5 |
| 20260830043934 | 81 | 160 | 3.0 | 3.0 | 0.00 | 0.01 | 0.01 | 75 | 1015.7 |
| 20260830043429 | 81 | 143 | 2.0 | 3.0 | 0.00 | 0.01 | 0.01 | 74 | 1015.7 |
| 20260830042927 | 81 | 138 | 4.0 | 5.0 | 0.00 | 0.01 | 0.01 | 74 | 1015.5 |
| 20260830042426 | 81 | 147 | 3.0 | 3.0 | 0.00 | 0.01 | 0.01 | 74 | 1015.5 |